User: anonymous   Login
Location: Fontevrault
(47.1823°N, 0.0493°E)
Time: 21:27:48
(UTC+00:00)
Language:

Meteor 1-21 Rocket - Orbit

View from above orbital plane
View from above orbital plane
View from above satellite
View from above satellite

Ground track
Ground track

The orbit data is extracted from the following two-line orbital elements,

1 07715U 75023B   21266.83888097 -.00000077  00000-0 -53462-4 0  9995
2 07715  81.2221 156.4004 0052904  65.5638 295.1037 14.06802349384639
Epoch (UTC): 23 September 2021 20:07:59
Eccentricity: 0.0052904
inclination: 81.2221°
perigee height: 832 km
apogee height: 908 km
right ascension of ascending node: 156.4004°
argument of perigee: 65.5638°
revolutions per day: 14.06802349
mean anomaly at epoch: 295.1037°
orbit number at epoch: 38463

The dashed part of the orbit path shows where the satellite is in the earth's shadow,  

DLR